Hourly Data Report for May 15, 2012

All times are specified in Local Standard Time (LST). Add 1 hour to adjust for Daylight Saving Time where and when it is observed.

SAULT STE MARIE A
ONTARIO

46°29'06.000" N
84°30'35.000" W
192.00 m
6057591
71260
YAM

Download Data

Hourly Data (May 2012)
Hourly Data Report for May 15, 2012
Temp Definition
°C
Dew Point Temp Definition
°C
Rel Hum Definition
%
Wind Dir Definition
10's deg

Wind Spd Definition
km/h
Visibility Definition
km
Stn Press Definition
kPa
Hmdx Definition


Wind Chill Definition


Weather Definition


TIME
00:00 Legend Double Dagger 10.7 4.7 66 19 7 10.0 98.97     LegendNANA
01:00 Legend Double Dagger 9.4 5.0 74 6 5 10.0 98.95     Mostly Cloudy
02:00 Legend Double Dagger 10.3 6.7 78 8 8 10.0 98.89     LegendNANA
03:00 Legend Double Dagger 11.9 6.4 69 12 12 10.0 98.81     Rain Showers
04:00 Legend Double Dagger 11.7 6.2 69 32 5 10.0 98.91     Mostly Cloudy
05:00 Legend Double Dagger 10.8 7.3 79 12 13 10.0 98.67     Rain Showers
06:00 Legend Double Dagger 10.7 7.8 82 7 5 10.0 98.73     LegendNANA
07:00 Legend Double Dagger 11.8 8.1 78 28 9 10.0 98.86     Cloudy
08:00 Legend Double Dagger 12.5 8.0 74 18 11 10.0 98.79     LegendNANA
09:00 Legend Double Dagger 12.1 8.4 78 12 14 10.0 98.69     LegendNANA
10:00 Legend Double Dagger 16.7 9.9 64 9 8 10.0 98.49     Mostly Cloudy
11:00 Legend Double Dagger 21.5 9.6 46 12 13 10.0 98.36     LegendNANA
12:00 Legend Double Dagger 24.2 7.1 33 19 21 10.0 98.30     LegendNANA
13:00 Legend Double Dagger 24.6 7.0 32 20 25 10.0 98.18 25   Clear
14:00 Legend Double Dagger 25.0 7.4 32 20 28 10.0 98.11 25   LegendNANA
15:00 Legend Double Dagger 18.6 8.9 53 30 36 10.0 98.42     LegendNANA
16:00 Legend Double Dagger 16.2 8.5 60 31 40 10.0 98.53     Mostly Cloudy
17:00 Legend Double Dagger 9.8 5.8 76 31 44 10.0 98.72     LegendNANA
18:00 Legend Double Dagger 8.9 4.5 74 31 36 10.0 98.79     LegendNANA
19:00 Legend Double Dagger 7.4 4.5 82 30 33 10.0 98.84     Mostly Cloudy
20:00 Legend Double Dagger 6.6 4.3 85 30 43 10.0 98.80     LegendNANA
21:00 Legend Double Dagger 5.8 3.8 87 29 42 10.0 98.84     LegendNANA
22:00
23:00 Legend Double Dagger 5.8 4.1 89 31 30 10.0 98.91     LegendNANA

Notes on Data Quality.

Legend

  • E = Estimated
  • M = Missing
  • NA = Not Available
  • ‡ = Partner data that is not subject to review by the National Climate Archives
Date modified: